This is the latest recevied weather packets stored in our database for station/object NK7E-2. If no packets are shown the sender has not sent any weather packets the latest 10 day(s).
| Time | Temp. | Humidity | Pressure | Rain* | Wind** | Luminosity | Snow |
|---|---|---|---|---|---|---|---|
| 1777743918 | 23.33° C | 31% | 1025.5 hPa | 0 mm | - | - | - |
| 1777743317 | 23.33° C | 31% | 1025.6 hPa | 0 mm | - | - | - |
| 1777742717 | 23.33° C | 33% | 1025.6 hPa | 0 mm | - | - | - |
| 1777742117 | 22.78° C | 33% | 1025.4 hPa | 0 mm | - | - | - |
| 1777741517 | 22.22° C | 34% | 1025.2 hPa | 0 mm | - | - | - |
| 1777740917 | 22.78° C | 34% | 1025.2 hPa | 0 mm | - | - | - |
| 1777740318 | 22.22° C | 34% | 1025.4 hPa | 0 mm | - | - | - |
| 1777739717 | 21.67° C | 35% | 1025.1 hPa | 0 mm | - | - | - |
| 1777739117 | 21.67° C | 36% | 1024.9 hPa | 0 mm | - | - | - |
| 1777738517 | 21.67° C | 35% | 1025.1 hPa | 0 mm | - | - | - |
| 1777737917 | 21.11° C | 37% | 1024.9 hPa | 0 mm | - | - | - |
| 1777737317 | 20.56° C | 38% | 1024.8 hPa | 0 mm | - | - | - |
| 1777736717 | 20.56° C | 38% | 1024.8 hPa | 0 mm | - | - | - |
| 1777736117 | 20.56° C | 38% | 1024.9 hPa | 0 mm | - | - | - |
| 1777735518 | 20° C | 39% | 1024.6 hPa | 0 mm | - | - | - |
| 1777734917 | 20° C | 40% | 1024.5 hPa | 0 mm | - | - | - |
| 1777734317 | 20° C | 40% | 1024.7 hPa | 0 mm | - | - | - |
| 1777733717 | 20° C | 41% | 1024.6 hPa | 0 mm | - | - | - |
| 1777733117 | 19.44° C | 42% | 1024.7 hPa | 0 mm | - | - | - |
| 1777732517 | 19.44° C | 42% | 1024.6 hPa | 0 mm | - | - | - |
| 1777731918 | 18.89° C | 43% | 1024.5 hPa | 0 mm | - | - | - |
| 1777731317 | 18.89° C | 44% | 1024.4 hPa | 0 mm | - | - | - |
| 1777730717 | 18.33° C | 45% | 1024.1 hPa | 0 mm | - | - | - |
| 1777730117 | 18.33° C | 47% | 1024.5 hPa | 0 mm | - | - | - |
| 1777729517 | 17.78° C | 47% | 1023.9 hPa | 0 mm | - | - | - |
* Rain latest hour (hover to see other rain measurements)
** Current wind speed in m/s (hover to see current wind gust speed)